Flag for Finland Weather past 2 weeks in Mariehamn, Finland

Now
43 °F

Clear.


Feels Like: 35 °F
Forecast: 40 / 46 °F
Wind: 15 mph from North

Location: Mariehamn / Aland Island

Current Time: Apr 20, 2015 at 2:47:38 AM

Latest Report: Apr 20, 2015 at 2:20 AM


Visibility: 10 mi

Pressure: 30.01 "Hg

Humidity: 71%

Dew point: 34 °F

Location of MariehamnLocation

Historic Weather in Mariehamn — Graph

°F

Mariehamn temperature yesterday

Maximum temperature yesterday: 52 °F (at 3:50 PM)
Minimum temperature yesterday: 32 °F (at 2:50 AM)
Average temperature yesterday: 44 °F

Past Weeks' High & Low Weather Summary

 TemperatureHumidityPressure
High55 °F (Apr 9, 4:50 PM)100% (Apr 5, 2:20 AM)30.33 "Hg (Apr 5, 2:20 AM)
Low28 °F (Apr 10, 6:50 AM)32% (Apr 8, 4:50 PM)29.30 "Hg (Apr 15, 11:50 PM)
Average42 °F74%29.88 "Hg
* Reported Apr 5 1:20 AM — Apr 20 1:20 AM, Mariehamn, Weather by CustomWeather, © 2015

Note: Actual official high and low records may vary slightly from our data, if they occured in-between our weather recording intervals... More about our weather records

Advertising

Mariehamn weather history for previous 24 hours

 ConditionsComfort  
Time TempWeatherWind HumidityBarometerVisibility
1:20 AM
Mon, Apr 20
45 °FClear.21 mph66%30.01 "Hg10 mi
12:50 AM46 °FClear.23 mph62%29.98 "Hg10 mi
12:20 AM48 °FClear.22 mph58%29.98 "Hg10 mi
11:50 PM
Sun, Apr 19
48 °FClear.22 mph62%29.95 "Hg10 mi
11:20 PM48 °FClear.22 mph58%29.95 "Hg10 mi
10:50 PM48 °FPassing clouds.21 mph58%29.95 "HgN/A
10:20 PM48 °FClear.20 mph58%29.95 "Hg10 mi
9:50 PM50 °FPassing clouds.18 mph54%29.92 "HgN/A
9:20 PM48 °FSunny.17 mph58%29.95 "Hg10 mi
8:50 PM48 °FSunny.17 mph58%29.92 "Hg10 mi
8:20 PM50 °FSunny.16 mph54%29.92 "Hg10 mi
7:50 PM50 °FSunny.16 mph54%29.92 "Hg10 mi
7:20 PM50 °FPassing clouds.16 mph54%29.92 "HgN/A
6:50 PM50 °FPassing clouds.17 mph54%29.92 "HgN/A
6:20 PM52 °FSunny.20 mph50%29.92 "Hg10 mi
5:50 PM52 °FPassing clouds.18 mph47%29.92 "HgN/A
5:20 PM52 °FPassing clouds.18 mph50%29.92 "HgN/A
4:50 PM52 °FPassing clouds.17 mph50%29.92 "HgN/A
4:20 PM52 °FPassing clouds.18 mph50%29.95 "HgN/A
3:50 PM52 °FPassing clouds.21 mph50%29.95 "HgN/A
3:20 PM50 °FPassing clouds.23 mph54%29.95 "HgN/A
2:50 PM50 °FSunny.22 mph58%29.98 "Hg10 mi
2:20 PM50 °FPassing clouds.21 mph54%29.98 "HgN/A
1:50 PM48 °FPassing clouds.23 mph62%29.98 "HgN/A
1:20 PM46 °FOvercast.17 mph66%29.98 "HgN/A
12:50 PM46 °FPartly sunny.18 mph66%30.01 "HgN/A
12:20 PM45 °FSunny.18 mph71%30.01 "Hg10 mi
11:50 AM45 °FSunny.17 mph71%30.04 "Hg10 mi
11:20 AM45 °FPartly sunny.17 mph76%30.04 "HgN/A
10:50 AM43 °FPartly sunny.17 mph81%30.04 "HgN/A
10:20 AM43 °FPartly sunny.16 mph76%30.04 "HgN/A
9:50 AM43 °FScattered clouds.16 mph81%30.04 "HgN/A
9:20 AM43 °FSunny.16 mph81%30.07 "Hg10 mi
8:50 AM41 °FPassing clouds.13 mph87%30.07 "HgN/A
8:20 AM41 °FSunny.9 mph87%30.07 "Hg10 mi
7:50 AM39 °FSunny.7 mph93%30.07 "Hg10 mi
7:20 AM37 °FSunny.7 mph93%30.09 "Hg10 mi
6:20 AM36 °FClear.6 mph93%30.09 "Hg10 mi
5:50 AM34 °FPassing clouds.6 mph100%30.09 "HgN/A
5:20 AM34 °FClear.5 mph93%30.09 "Hg10 mi
4:50 AM32 °FClear.5 mph100%30.09 "Hg10 mi
4:20 AM34 °FClear.3 mph93%30.09 "Hg10 mi
3:50 AM36 °FClear.2 mph93%30.09 "Hg10 mi
3:20 AM36 °FClear.2 mph93%30.09 "Hg10 mi
2:50 AM32 °FClear.5 mph93%30.09 "Hg10 mi
2:20 AM36 °FClear.2 mph93%30.09 "Hg10 mi
Weather by CustomWeather, © 2015

See weather overviewHow to use our weather pages